Location: Ergnies
(50.0854°N, 2.0375°E)
Time: 09:39:03
(UTC+00:00)

IGS 5A - Pass Details

Date: 14 January 2026
Orbit: 551 x 554 km, 97.4° (Epoch: 8 January)

Event Time Altitude Azimuth Distance (km) Brightness Sun altitude
Rises 06:00:31 0° 11° (N) 2,742 6.9 -16.2°
Reaches altitude 10° 06:02:39 10° 10° (N) 1,842 5.9 -15.9°
Maximum altitude 06:06:37 73° 286° (WNW) 582 3.2 -15.3°
Drops below altitude 10° 06:10:34 10° 201° (SSW) 1,827 5.9 -14.7°
Sets 06:12:41 0° 200° (SSW) 2,716 6.8 -14.3°
